Marfa, TX

6:54 PM CDT on June 25, 2017 (GMT -0500)
Marfa Municipal

Weather History for KMRF - March, 2013

Change the Weather History Date:

Monday, March 18, 2013

  Actual Average Record
Temperature  
Mean Temperature 55 °F -  
Max Temperature 71 °F 66 °F 84 °F (2011)
Min Temperature 39 °F 35 °F 23 °F (2009)
Degree Days  
Heating Degree Days 10    
Growing Degree Days 5 (Base 50)    
Moisture  
Dew Point 16 °F    
Average Humidity 20    
Maximum Humidity 34    
Minimum Humidity 12    
Precipitation  
Precipitation 0.00 in - - ()
Sea Level Pressure  
Sea Level Pressure 30.06 in    
Wind  
Wind Speed 10 mph (West)    
Max Wind Speed 18 mph    
Max Gust Speed 28 mph    
Visibility 10 miles    
Events      
Averages and records for this station are not official NWS values.
T = Trace of Precipitation, MM = Missing Value Source: NWS Daily Summary

Daily Weather History Graph

Daily Weather History Graph

Search for Another Location

Airport or City:

Trip Planner

Search our weather history database for the weather conditions in past years. The results will help you decide how hot, cold, wet, or windy it might be!

Date:

Astronomy

Mar. 18, 2013 Rise Set
Actual Time 8:01 AM CDT 8:06 PM CDT
Civil Twilight 7:38 AM CDT 8:30 PM CDT
Nautical Twilight 7:10 AM CDT 8:58 PM CDT
Astronomical Twilight 6:42 AM CDT 9:26 PM CDT
Moon 12:26 PM CDT (3/18) 1:44 AM CDT (3/18)
Length of Visible Light 12h 52m
Length of Day
12h 04m
Waxing Crescent, 41% of the Moon is Illuminated
Mar 18
Waxing Crescent
Mar 19
First Quarter
Mar 27
Full
Apr 2
Last Quarter
Apr 10
New

Hourly Weather History & Observations

Time (CDT) Temp. Windchill Dew Point Humidity Pressure Visibility Wind Dir Wind Speed Gust Speed Precip Events Conditions
12:15 AM 62.6 °F - 14.0 °F 15% 29.96 in 10.0 mi West 16.1 mph - N/A   Clear
12:35 AM 60.8 °F - 12.2 °F 15% 29.97 in 10.0 mi West 11.5 mph - N/A   Clear
12:55 AM 57.2 °F - 10.4 °F 16% 29.97 in 10.0 mi WNW 11.5 mph - N/A   Clear
1:15 AM 55.4 °F - 12.2 °F 18% 29.97 in 10.0 mi WNW 5.8 mph - N/A   Clear
1:35 AM 57.2 °F - 14.0 °F 18% 29.97 in 10.0 mi West 10.4 mph - N/A   Clear
1:55 AM 60.8 °F - 15.8 °F 17% 29.97 in 10.0 mi WNW 11.5 mph - N/A   Clear
2:15 AM 57.2 °F - 15.8 °F 20% 29.99 in 10.0 mi NW 3.5 mph - N/A   Clear
2:35 AM 51.8 °F - 12.2 °F 21% 29.99 in 10.0 mi East 4.6 mph - N/A   Clear
2:55 AM 51.8 °F - 12.2 °F 21% 30.00 in 10.0 mi North 3.5 mph - N/A   Clear
3:15 AM 57.2 °F - 15.8 °F 20% 30.00 in 10.0 mi NNW 5.8 mph - N/A   Clear
3:35 AM 55.4 °F - 15.8 °F 21% 30.00 in 10.0 mi NNE 3.5 mph - N/A   Clear
3:55 AM 48.2 °F - 12.2 °F 24% 30.01 in 10.0 mi Calm Calm - N/A   Clear
4:15 AM 48.2 °F - 12.2 °F 24% 30.01 in 10.0 mi SW 3.5 mph - N/A   Clear
4:35 AM 46.4 °F 44.3 °F 12.2 °F 25% 30.01 in 10.0 mi West 4.6 mph - N/A   Clear
4:55 AM 48.2 °F - 14.0 °F 25% 30.01 in 10.0 mi WNW 8.1 mph - N/A   Clear
5:15 AM 44.6 °F 40.2 °F 12.2 °F 27% 30.01 in 10.0 mi WNW 8.1 mph - N/A   Clear
5:35 AM 42.8 °F 38.6 °F 10.4 °F 27% 30.02 in 10.0 mi West 6.9 mph - N/A   Clear
5:55 AM 48.2 °F - 14.0 °F 25% 30.03 in 10.0 mi West 10.4 mph - N/A   Clear
6:15 AM 44.6 °F 39.2 °F 10.4 °F 25% 30.03 in 10.0 mi West 10.4 mph - N/A   Clear
6:35 AM 42.8 °F 37.0 °F 12.2 °F 29% 30.04 in 10.0 mi WSW 10.4 mph - N/A   Clear
6:55 AM 39.2 °F 32.5 °F 10.4 °F 31% 30.05 in 10.0 mi WSW 10.4 mph - N/A   Clear
7:15 AM 41.0 °F 33.9 °F 12.2 °F 31% 30.05 in 10.0 mi West 12.7 mph - N/A   Clear
7:35 AM 44.6 °F 42.2 °F 14.0 °F 29% 30.06 in 10.0 mi West 4.6 mph - N/A   Clear
7:55 AM 39.2 °F 35.9 °F 12.2 °F 33% 30.07 in 10.0 mi WSW 4.6 mph - N/A   Clear
8:15 AM 39.2 °F 37.0 °F 10.4 °F 31% 30.08 in 10.0 mi West 3.5 mph - N/A   Clear
8:35 AM 42.8 °F 38.0 °F 15.8 °F 34% 30.09 in 10.0 mi WSW 8.1 mph - N/A   Clear
8:55 AM 46.4 °F 42.4 °F 15.8 °F 29% 30.10 in 10.0 mi West 8.1 mph - N/A   Clear
9:15 AM 50.0 °F - 15.8 °F 26% 30.11 in 10.0 mi North 4.6 mph - N/A   Clear
9:35 AM 53.6 °F - 17.6 °F 24% 30.12 in 10.0 mi NW 4.6 mph - N/A   Clear
9:55 AM 59.0 °F - 19.4 °F 22% 30.11 in 10.0 mi West 10.4 mph - N/A   Clear
10:15 AM 62.6 °F - 21.2 °F 20% 30.12 in 10.0 mi West 13.8 mph - N/A   Clear
10:35 AM 64.4 °F - 21.2 °F 19% 30.12 in 10.0 mi West 15.0 mph 20.7 mph N/A   Clear
10:55 AM 64.4 °F - 21.2 °F 19% 30.12 in 10.0 mi West 18.4 mph 27.6 mph N/A   Clear
11:15 AM 64.4 °F - 21.2 °F 19% 30.13 in 10.0 mi West 16.1 mph 24.2 mph N/A   Clear
11:35 AM 66.2 °F - 21.2 °F 18% 30.13 in 10.0 mi West 16.1 mph 26.5 mph N/A   Clear
11:55 AM 66.2 °F - 23.0 °F 19% 30.12 in 10.0 mi WNW 16.1 mph 25.3 mph N/A   Clear
12:15 PM 68.0 °F - 21.2 °F 17% 30.12 in 10.0 mi West 16.1 mph 25.3 mph N/A   Clear
12:35 PM 69.8 °F - 21.2 °F 16% 30.12 in 10.0 mi WNW 17.3 mph 23.0 mph N/A   Clear
12:55 PM 69.8 °F - 21.2 °F 16% 30.12 in 10.0 mi WNW 15.0 mph 24.2 mph N/A   Clear
1:15 PM 69.8 °F - 21.2 °F 16% 30.11 in 10.0 mi WNW 16.1 mph 21.9 mph N/A   Clear
1:35 PM 69.8 °F - 21.2 °F 16% 30.11 in 10.0 mi West 16.1 mph 21.9 mph N/A   Clear
1:55 PM 69.8 °F - 19.4 °F 15% 30.09 in 10.0 mi West 13.8 mph 18.4 mph N/A   Clear
2:15 PM 69.8 °F - 19.4 °F 15% 30.09 in 10.0 mi WSW 15.0 mph 20.7 mph N/A   Clear
2:35 PM 71.6 °F - 19.4 °F 14% 30.08 in 10.0 mi WSW 15.0 mph 18.4 mph N/A   Clear
2:55 PM 69.8 °F - 17.6 °F 14% 30.08 in 10.0 mi WSW 6.9 mph 20.7 mph N/A   Clear
3:15 PM 71.6 °F - 15.8 °F 12% 30.07 in 10.0 mi WSW 12.7 mph 18.4 mph N/A   Clear
3:35 PM 69.8 °F - 15.8 °F 13% 30.07 in 10.0 mi West 15.0 mph 19.6 mph N/A   Clear
3:55 PM 69.8 °F - 17.6 °F 14% 30.06 in 10.0 mi WNW 13.8 mph 19.6 mph N/A   Clear
4:15 PM 69.8 °F - 17.6 °F 14% 30.06 in 10.0 mi West 15.0 mph - N/A   Clear
4:35 PM 71.6 °F - 17.6 °F 13% 30.05 in 10.0 mi West 16.1 mph 20.7 mph N/A   Clear
4:55 PM 69.8 °F - 17.6 °F 14% 30.05 in 10.0 mi West 11.5 mph - N/A   Clear
5:15 PM 69.8 °F - 15.8 °F 13% 30.06 in 10.0 mi WSW 12.7 mph 18.4 mph N/A   Clear
5:35 PM 69.8 °F - 17.6 °F 14% 30.06 in 10.0 mi SSW 8.1 mph - N/A   Clear
5:55 PM 71.6 °F - 17.6 °F 13% 30.05 in 10.0 mi West 12.7 mph 17.3 mph N/A   Clear
6:15 PM 69.8 °F - 17.6 °F 14% 30.05 in 10.0 mi WSW 8.1 mph - N/A   Clear
6:35 PM 71.6 °F - 17.6 °F 13% 30.05 in 10.0 mi WSW 13.8 mph - N/A   Clear
6:55 PM 69.8 °F - 15.8 °F 13% 30.05 in 10.0 mi West 11.5 mph - N/A   Clear
7:15 PM 69.8 °F - 15.8 °F 13% 30.06 in 10.0 mi West 15.0 mph - N/A   Clear
7:35 PM 68.0 °F - 17.6 °F 15% 30.06 in 10.0 mi WSW 9.2 mph - N/A   Clear
7:55 PM 66.2 °F - 15.8 °F 14% 30.06 in 10.0 mi West 8.1 mph - N/A   Clear
8:15 PM 62.6 °F - 15.8 °F 16% 30.06 in 10.0 mi West 9.2 mph - N/A   Clear
8:35 PM 57.2 °F - 15.8 °F 20% 30.06 in 10.0 mi West 6.9 mph - N/A   Clear
8:55 PM 57.2 °F - 15.8 °F 20% 30.07 in 10.0 mi West 5.8 mph - N/A   Clear
9:15 PM 51.8 °F - 12.2 °F 21% 30.07 in 10.0 mi WNW 5.8 mph - N/A   Clear
9:35 PM 48.2 °F - 10.4 °F 22% 30.08 in 10.0 mi NW 5.8 mph - N/A   Clear
9:55 PM 48.2 °F - 12.2 °F 24% 30.08 in 10.0 mi NW 4.6 mph - N/A   Clear
10:15 PM 48.2 °F - 12.2 °F 24% 30.08 in 10.0 mi WNW 8.1 mph - N/A   Clear
10:55 PM 48.2 °F - 12.2 °F 24% 30.09 in 10.0 mi West 10.4 mph - N/A   Clear
11:15 PM 46.4 °F 41.1 °F 12.2 °F 25% 30.09 in 10.0 mi West 11.5 mph - N/A   Clear
11:35 PM 46.4 °F 41.1 °F 12.2 °F 25% 30.09 in 10.0 mi West 11.5 mph - N/A   Clear
11:55 PM 44.6 °F 39.2 °F 12.2 °F 27% 30.09 in 10.0 mi West 10.4 mph - N/A   Clear